Location: Casa Rossa
(45.2389°N, 12.2056°E)
Time: 04:20:21
(UTC+00:00)

Cosmos 1842 - Pass Details

Date: 14 July 2020
Orbit: 522 x 536 km, 82.5° (Epoch: 11 August)

Event Time Altitude Azimuth Distance (km) Brightness Sun altitude
Rises 02:17:35 0° 357° (N) 2,696 7.6 -11.6°
Reaches altitude 10° 02:19:49 10° 4° (N) 1,801 6.7 -11.3°
Maximum altitude 02:23:37 44° 77° (ENE) 748 4.5 -10.8°
Drops below altitude 10° 02:27:24 10° 151° (SSE) 1,789 5.8 -10.4°
Sets 02:29:36 0° 158° (SSE) 2,675 6.6 -10.1°
